Location: Hájky
(49.3879°N, 14.5075°E)
Time: 12:25:50
(UTC+00:00)

Daily predictions for brighter satellites

Satellite Brightness Start Highest point End
(mag) Time Altitude Azimuth Time Altitude Azimuth Time Altitude Azimuth
Cosmos 2082 Rocket 3.7 19:47:14 10° SE 19:50:55 18° E 19:54:36 10° ENE
USA 276 2.0 19:50:29 10° W 19:53:31 83° N 19:56:34 10° E
H-2A R/B 2.6 19:49:52 10° N 19:54:16 67° WNW 19:58:44 10° SSW
Cosmos 1455 2.8 19:53:35 10° NNW 19:57:21 58° W 20:01:06 10° S
USA 245 3.1 19:53:47 10° SSE 19:57:50 71° ENE 20:01:04 10° N
Cosmos 1536 Rocket 3.6 19:53:54 10° S 19:58:10 62° E 20:02:29 10° NNE
Cosmos 1606 Rocket 4.4 19:58:09 10° N 20:02:10 36° ENE 20:06:10 10° SE
CARTOSAT-1 3.7 19:57:58 10° SSE 20:02:17 81° WSW 20:06:38 10° NNW
ARIANE 5 R/B 3.8 19:58:38 10° SE 20:02:30 30° ENE 20:06:22 10° N
Cosmos 1741 Rocket 4.1 19:58:50 10° NNW 20:04:12 88° WSW 20:09:32 10° SSE
ATLAS 5 CENTAUR R/B 4.4 19:53:11 10° NW 20:05:18 37° WSW 20:09:28 10° S
SPOT 3 Rocket 3.7 20:06:34 10° SSE 20:11:47 80° WSW 20:17:02 10° NNW
Cosmos 2074 Rocket 4.1 20:06:10 10° N 20:12:29 87° E 20:18:44 10° S
Ariane Rocket 3.8 20:08:29 10° S 20:13:27 51° W 20:18:25 10° NNW
Cosmos 1656 4.5 20:17:02 10° NW 20:22:14 45° WSW 20:27:27 10° S
Cosmos 1726 Rocket 4.0 20:20:48 10° N 20:24:58 46° ENE 20:28:35 13° SSE
Nadezhda 1 Rocket 4.0 20:19:50 10° S 20:25:48 62° E 20:31:47 10° NNE
USA 234 4.1 20:21:53 10° E 20:28:11 51° NNE 20:34:29 10° WNW
ATLAS 2AS CENTAUR R/B 4.2 20:22:57 10° WNW 20:28:43 28° WSW 20:34:12 10° SSW
Cosmos 1892 4.3 20:27:17 13° SE 20:29:25 19° E 20:32:09 10° NE
Meteor 2-1 Rocket 4.2 20:24:35 10° N 20:30:07 75° ENE 20:35:17 12° SSE
SL-16 R/B 3.9 20:28:57 10° NNW 20:33:35 25° NE 20:38:12 10° E
Cosmos 1980 Rocket 2.4 20:28:32 10° NNW 20:34:13 65° ENE 20:39:07 14° SE
Cosmos 1697 Rocket 2.8 20:28:52 10° NNW 20:34:29 72° WSW 20:39:32 13° SSE
Cosmos 2344 4.3 20:28:15 10° NW 20:37:00 89° NE 20:48:13 13° SE
Cosmos 2369 3.8 20:31:56 10° NNW 20:37:42 75° ENE 20:42:35 15° SE
SL-8 R/B 4.5 20:33:30 10° W 20:37:55 37° SSW 20:41:22 15° SSE
Cosmos 1331 Rocket 4.0 20:33:40 10° SSW 20:38:58 82° ESE 20:44:18 10° NNE
Spot 2 Rocket 3.9 20:38:51 10° S 20:43:53 63° WSW 20:48:59 10° NNW
Cosmos 2154 Rocket 4.1 20:37:50 10° NNW 20:44:04 79° W 20:50:11 10° S
COSMOS 2406 3.3 20:38:41 10° S 20:44:19 60° ESE 20:49:59 10° NE
X-37B 1.8 20:44:03 10° WSW 20:46:17 21° SSW 20:47:01 19° S
CZ-2C R/B 3.6 20:42:42 10° NNE 20:47:17 76° ESE 20:51:45 10° S
ATLAS 5 CENTAUR R/B 2.8 20:48:00 16° SE 20:48:42 17° ESE 20:51:20 10° ENE
SPOT 5 3.4 20:49:45 10° S 20:53:56 47° W 20:58:07 10° NNW
Cosmos 2084 Rocket 3.6 20:53:37 10° NW 20:57:25 53° SW 21:00:03 20° SSE
RESURS DK-1 4.2 20:54:34 10° NW 20:57:51 23° WSW 21:01:07 10° SSW
Cosmos 1833 Rocket 3.0 20:54:56 10° SW 21:00:31 69° WNW 21:06:09 10° NNE
Terra 2.2 20:56:28 14° S 21:00:34 62° WSW 21:05:19 10° NNW
CZ-4B R/B 4.3 20:59:40 10° NW 21:00:51 12° WNW 21:02:00 10° W
ASTEX 1 3.7 20:58:00 10° NNE 21:02:54 51° E 21:06:20 19° SSE
SL-8 Rocket 4.2 20:57:33 10° N 21:03:45 62° ENE 21:08:23 18° SSE
Helios 1A Rocket 4.1 21:01:06 11° SSW 21:04:46 37° W 21:08:37 10° NNW
ERS-1 Rocket 3.8 21:02:33 11° S 21:07:12 45° W 21:12:03 10° NNW
FALCON 9 DEB 3.1 21:04:03 10° WNW 21:07:19 75° NNE 21:09:45 17° ESE
Cosmos 1892 Rocket 3.5 21:04:14 15° S 21:07:49 79° E 21:12:13 10° NNE
Cosmos 2322 Rocket 3.6 21:04:20 10° NNW 21:09:21 31° NE 21:14:21 10° ESE
Cosmos 1302 Rocket 3.9 21:04:12 10° SSW 21:09:23 75° ESE 21:14:35 10° NNE
Cosmos 2058 Rocket 3.0 21:07:56 10° N 21:12:23 82° ENE 21:15:19 21° SSE
Cosmos 1825 3.0 21:15:03 24° SE 21:16:38 35° E 21:20:05 10° NNE
Cosmos 1408 2.3 21:16:15 23° S 21:18:17 81° E 21:21:46 10° NNE
Cosmos 1626 Rocket 4.3 21:17:39 22° SE 21:19:47 37° E 21:23:48 10° NNE
Meteor 1-11 4.2 21:15:39 15° S 21:20:25 81° E 21:26:01 10° NNE
Cosmos 2278 3.7 21:14:41 10° NNW 21:20:27 84° ENE 21:24:23 21° SSE
Cosmos 2366 rocket 4.1 21:16:29 10° N 21:22:51 72° E 21:27:20 21° SSE
Cosmos 968 Rocket 3.8 21:17:56 10° NNW 21:23:03 59° WSW 21:26:36 20° S
Cosmos 2333 Rocket 4.3 21:19:38 10° N 21:23:55 21° NE 21:28:11 10° E
Cosmos 2218 Rocket 4.1 21:19:53 10° N 21:26:20 76° E 21:30:50 21° SSE
USA 276 1.8 21:26:17 10° W 21:29:20 86° S 21:31:01 24° ESE
SJ 16-02 2.7 21:28:30 10° N 21:32:29 31° ENE 21:35:23 16° ESE
Cosmos 1867 3.9 21:27:54 10° NW 21:33:15 55° WSW 21:36:30 23° S
BREEZE-M DEB (TANK) 4.3 21:19:53 10° SW 21:34:14 57° SSE 21:38:20 10° E
Cosmos 2082 Rocket 2.3 21:28:32 10° SSW 21:34:16 84° WNW 21:40:01 10° NNE
USA 267 3.4 21:29:11 10° ENE 21:35:31 49° SE 21:41:49 10° SSW
ARIANE 5 R/B 3.8 21:35:43 15° SSW 21:38:53 34° W 21:42:57 10° NNW
GP-B 3.2 21:36:19 10° N 21:40:46 72° W 21:43:35 22° SSW
Cosmos 1959 Rocket 4.4 21:35:36 10° N 21:41:45 89° WSW 21:45:49 23° S
Cosmos 2341 Rocket 4.3 21:36:08 10° NNW 21:42:23 63° W 21:47:01 18° S
SAR-Lupe-4 3.6 21:41:09 10° N 21:44:44 75° WNW 21:46:46 24° SSW
Cosmos 2360 Rocket 3.4 21:40:11 10° NNW 21:45:24 36° NE 21:50:16 11° ESE
Spot 4 3.9 21:48:33 26° SSE 21:51:11 70° ENE 21:55:59 10° N
Cosmos 1606 3.8 21:48:15 10° N 21:51:47 33° ENE 21:53:24 23° ESE
Okean 1-7 Rocket 3.7 21:58:40 24° SSW 22:01:19 74° WNW 22:05:50 10° N
Cosmos 1892 4.0 22:02:06 16° SW 22:04:43 36° WNW 22:08:14 10° N
Cosmos 1758 Rocket 3.6 22:08:36 33° SSE 22:10:24 62° E 22:14:46 10° NNE
USA 234 3.2 22:04:42 12° ESE 22:10:56 90° SSE 22:17:33 10° WNW
Cosmos 2181 Rocket 4.3 22:07:21 17° SSW 22:12:10 63° WNW 22:18:24 10° N
Cosmos 1633 2.3 22:12:09 43° S 22:13:10 82° ESE 22:16:40 10° NNE
Cosmos 1980 Rocket 3.7 22:13:17 10° NW 22:17:45 24° WSW 22:20:52 15° SW
Cosmos 1821 Rocket 4.0 22:11:32 10° N 22:17:49 88° ENE 22:21:23 27° S
SL-16 R/B 2.2 22:12:38 10° NNW 22:18:20 78° WSW 22:21:23 28° SSE
Cosmos 1992 Rocket 4.3 22:15:18 16° SW 22:19:32 65° WNW 22:24:46 10° NNE
Cosmos 1812 Rocket 3.7 22:15:45 10° NNW 22:20:12 71° W 22:22:08 33° S
SL-4 R/B 3.2 22:23:23 21° ESE 22:23:23 21° ESE 22:25:10 10° E
Cosmos 2219 Rocket 3.7 22:17:25 10° NNW 22:22:29 32° NE 22:27:33 10° ESE
Cosmos-2242 3.0 22:25:19 10° NNW 22:29:33 70° W 22:31:12 36° S
ATLAS 5 CENTAUR R/B 1.8 22:29:22 13° WSW 22:32:36 59° NW 22:36:54 10° NE
Cosmos 1602 Rocket 3.9 22:32:11 27° SSW 22:34:20 58° WNW 22:38:38 10° N
ERS-2 2.7 22:33:36 10° NNE 22:37:01 40° E 22:37:40 36° SE
Cosmos 1238 4.2 22:38:02 57° S 22:38:37 86° E 22:42:07 10° N
Nadezhda 3 Rocket 3.9 22:36:22 27° S 22:39:56 90° E 22:46:09 10° N
ALOS 2 2.8 22:39:48 35° SSW 22:41:31 62° WSW 22:45:54 10° NNW
Cosmos 1354 Rocket 4.4 22:41:40 10° NNW 22:46:49 52° WSW 22:49:06 30° SSW
BREEZE-M DEB (TANK) 4.1 22:46:02 10° W 22:49:46 73° SSW 23:05:52 10° ESE
ADEOS Rocket 3.6 22:45:43 26° S 22:50:13 69° WSW 22:57:59 10° NNW
Cosmos 972 Rocket 4.1 22:46:23 10° NNW 22:51:34 76° ENE 22:54:40 27° SSE
Cosmos 1825 4.3 22:49:40 12° WSW 22:52:06 20° WNW 22:54:57 10° NNW
Cosmos 2322 Rocket 2.4 22:48:11 10° NW 22:53:45 59° WSW 22:56:24 31° S
ISS -1.4 23:01:42 14° E 23:01:42 14° E 23:02:26 10° E
Cosmos 1953 Rocket 3.5 22:58:43 38° S 23:00:23 76° E 23:04:49 10° NNE
SL-27 R/B 3.8 23:00:48 24° ESE 23:00:54 24° ESE 23:03:37 10° NE
PSLV R/B 4.0 22:56:26 10° NNE 23:01:09 59° E 23:03:01 34° SSE
Cosmos 1777 Rocket 4.3 22:59:29 10° NNW 23:04:40 55° WSW 23:06:53 32° SSW
USA 276 4.4 23:02:13 10° W 23:02:49 14° W 23:02:49 14° W
Cosmos 2333 Rocket 2.3 23:03:21 10° NNW 23:09:09 80° ENE 23:12:52 23° SE
Cosmos 1825 Rocket 3.9 23:08:17 31° SW 23:10:08 57° WNW 23:14:26 10° N
SJ 16-02 2.3 23:07:03 10° NW 23:11:02 34° WSW 23:12:19 28° SW
CENTAUR R/B 3.8 23:09:34 19° SE 23:11:46 23° ESE 23:16:48 10° ENE
Gbstr 26 Del rocket 3.3 23:11:09 34° SSW 23:12:53 56° SSE 23:18:03 10° ENE
COSMOS 2487 3.3 23:13:59 29° ESE 23:13:59 29° ESE 23:16:43 10° NE
Cosmos 1340 Rocket 2.8 23:13:04 41° SSW 23:14:22 75° WNW 23:18:21 10° N
Cosmos 1898 Rocket 4.4 23:11:15 10° NNW 23:16:12 43° ENE 23:20:27 14° SE
Cosmos 2151 4.2 23:14:58 24° SE 23:16:38 32° E 23:20:28 10° NNE
USA 267 3.5 23:12:13 10° ENE 23:18:45 71° NNW 23:25:15 10° WSW
Cosmos 2082 Rocket 4.5 23:14:56 10° W 23:19:13 21° NW 23:23:31 10° N
Meteor 2-3 Rocket 4.1 23:20:57 28° SSE 23:23:45 54° E 23:29:12 10° NNE
Cosmos 1812 3.8 23:21:22 10° N 23:24:56 36° ENE 23:26:43 23° SE
Cosmos 2221 2.5 23:22:20 10° NNW 23:26:41 71° W 23:28:17 38° S
Cosmos 1606 4.4 23:24:11 10° NW 23:27:11 22° W 23:28:16 19° WSW
Cosmos 2058 3.9 23:26:08 25° SW 23:28:00 39° WNW 23:31:57 10° N
Cosmos 1842 Rocket 3.5 23:24:53 10° N 23:29:24 87° W 23:31:14 36° S
Cosmos 2360 Rocket 2.6 23:24:08 10° NW 23:29:35 48° WSW 23:32:00 30° SSW
Cosmos 1934 Rocket 4.3 23:23:58 10° NNW 23:29:53 54° W 23:33:06 27° SSW
Nimbus 7 Rocket 4.4 23:27:11 10° NNE 23:33:09 82° WNW 23:36:36 27° SSW
Cosmos 2333 4.2 23:28:27 10° NNW 23:34:13 69° WSW 23:37:21 28° S
Resurs 1-4 Rocket 4.0 23:30:44 10° NE 23:34:37 20° E 23:38:01 12° SE
Cosmos 1782 3.0 23:31:39 10° N 23:35:36 63° ENE 23:37:13 33° SSE
SL-19 R/B 4.4 23:37:33 34° SSE 23:39:14 79° ENE 23:43:41 10° NNW
Cosmos 1833 4.2 23:39:57 26° SW 23:43:15 77° WNW 23:48:53 10° NNE
CZ-2D R/B 3.8 23:39:16 10° NE 23:43:18 22° E 23:46:39 13° SE
Cosmos 44 3.1 23:41:21 29° SW 23:43:39 85° NW 23:48:08 10° NE
COSMOS 2455 4.1 23:38:07 10° NNW 23:43:50 41° NE 23:49:30 10° ESE
EP 2 4.5 23:52:20 60° S 23:52:40 68° SE 23:55:39 10° NE
Cosmos 1459 Rocket 4.4 23:47:54 10° N 23:53:52 57° ENE 23:58:33 17° SSE
Cosmos 2237 Rocket 3.4 23:49:02 10° NNW 23:54:23 40° NE 23:59:42 10° ESE
